星链-33616 (STARLINK-33616)

导读 | 星芒AI

STARLINK-33616 是 SpaceX Starlink 卫星互联网项目中的一颗低轨卫星,属于第三代星链卫星(v1.5)。该卫星于2023年发射,旨在为全球用户提供高速、低延迟的宽带互联网服务。它运行在约550公里高的近地轨道,配备先进通信设备和激光链路,支持星间通信。Starlink 项目计划部署数千颗卫星,以构建覆盖全球的卫星网络,尤其服务于偏远和网络基础设施薄弱地区。STARLINK-33616 的部署有助于提升网络容量与稳定性。

基本信息
目录编号:
63385
目录名称:
STARLINK-33616
国际标识:
2025-063Y
轨道中心:
EARTH
卫星名称:
星链-33616
卫星全名:
星链-33616 (STARLINK-33616)
卫星状态:
在轨 (已飞行226 天)
发射日期:
2025-03-26 UTC
国别 :
美国 (US)
星等 :
--
轨道信息
数据来源 国际轨道数据
星历时间: 2025-11-07T12:27:52+0800
18小时前
查看轨道信息
半长轴: 6853.509km
偏心率: 0.0001153
轨道倾角: 53.159°
近地点辐角 73.991°
升交点赤经 272.129°
平近点角 286.122°
近地点: 474.583km
远地点: 476.165km
周期: 94.109分钟
每日圈数: 15.301475
详细信息
固有亮度:
5
最大亮度:
2.5
卫星平台:
Starlink V1.0
覆盖范围:
全球
运营商:
太空探索技术公司
运营商所在国:
美国
制造商(研发单位):
太空探索技术公司
制造商所在国:
美国
使用方式:
暂无
卫星简介
Starlink 计划是 SpaceX 推出的全球卫星互联网项目,通过发射低轨道卫星,为全球尤其是偏远地区提供高速、低延迟的互联网服务。自 2019 年起,Starlink 已部署数千颗卫星,旨在缩小全球数字鸿沟,推动互联网普及。该项目还为军事、航空等行业提供通信支持,带来广泛经济效益。
2D轨道图
3D轨道图
轨道高度分析图
轨道倾角分析图
轨道综合分析图
查看轨道综合分析图